KJ4JWC Weather Reports


Display with metric or nautical units.
time (UTC)temp
F
wind
direction
speed
MPH
gust
MPH
rain 1hr
in
rain 24hr
in
rain mn
in
humidity
%
barometer
mb
20260504213655 77 135 2.0 3.0 0.00 0.00 0.00 32 1007.0
20260504213157 77 135 2.0 2.0 0.00 0.00 0.00 32 1007.0
20260504212657 77 135 3.0 5.0 0.00 0.00 0.00 33 1006.0
20260504212155 77 135 0.0 1.0 0.00 0.00 0.00 33 1007.0
20260504211656 77 135 2.0 3.0 0.00 0.00 0.00 32 1007.0
20260504211156 77 135 2.0 3.0 0.00 0.00 0.00 32 1007.0
20260504210656 77 135 2.0 3.0 0.00 0.00 0.00 33 1007.0
20260504210154 77 135 2.0 3.0 0.00 0.00 0.00 33 1007.0
20260504205655 77 135 2.0 2.0 0.00 0.00 0.00 32 1007.0
20260504205156 78 135 2.0 2.0 0.00 0.00 0.00 33 1007.0
20260504204656 78 135 0.0 1.0 0.00 0.00 0.00 34 1007.0
20260504204155 78 135 2.0 2.0 0.00 0.00 0.00 32 1007.0
20260504203655 78 135 2.0 2.0 0.00 0.00 0.00 35 1007.0
20260504203157 78 135 0.0 1.0 0.00 0.00 0.00 32 1007.0
20260504202656 78 135 0.0 1.0 0.00 0.00 0.00 34 1007.0
20260504202156 78 113 1.0 2.0 0.00 0.00 0.00 33 1007.0
20260504201658 78 135 1.0 2.0 0.00 0.00 0.00 34 1007.0
20260504201155 78 135 1.0 2.0 0.00 0.00 0.00 34 1007.0
20260504200658 78 135 2.0 2.0 0.00 0.00 0.00 33 1007.0
20260504200155 77 135 2.0 2.0 0.00 0.00 0.00 33 1007.0
20260504195654 77 135 1.0 2.0 0.00 0.00 0.00 35 1007.0
20260504195156 77 135 4.0 5.0 0.00 0.00 0.00 33 1007.0
20260504194657 78 135 2.0 3.0 0.00 0.00 0.00 34 1007.0
20260504194156 78 135 3.0 3.0 0.00 0.00 0.00 34 1007.0
20260504193655 78 135 0.0 0.0 0.00 0.00 0.00 33 1007.0
20260504193156 78 135 3.0 5.0 0.00 0.00 0.00 32 1007.0
20260504192658 79 135 2.0 3.0 0.00 0.00 0.00 32 1007.0
20260504192154 79 135 0.0 1.0 0.00 0.00 0.00 33 1007.0
20260504191656 79 135 2.0 2.0 0.00 0.00 0.00 32 1008.0
20260504191156 79 113 0.0 0.0 0.00 0.00 0.00 30 1008.0
20260504190654 79 135 3.0 3.0 0.00 0.00 0.00 32 1008.0
20260504190159 80 135 2.0 3.0 0.00 0.00 0.00 30 1008.0
20260504185701 80 135 3.0 3.0 0.00 0.00 0.00 30 1008.0
20260504185156 79 135 3.0 3.0 0.00 0.00 0.00 29 1008.0
20260504184655 79 135 3.0 3.0 0.00 0.00 0.00 31 1008.0
20260504184156 79 113 1.0 2.0 0.00 0.00 0.00 31 1008.0
20260504183657 78 135 2.0 2.0 0.00 0.00 0.00 32 1008.0
20260504183155 78 135 1.0 2.0 0.00 0.00 0.00 32 1008.0
20260504182656 77 135 2.0 2.0 0.00 0.00 0.00 32 1008.0
20260504182157 77 135 3.0 4.0 0.00 0.00 0.00 31 1008.0
20260504181701 78 135 2.0 3.0 0.00 0.00 0.00 31 1008.0
20260504181157 78 135 2.0 2.0 0.00 0.00 0.00 31 1008.0
20260504180658 77 135 4.0 5.0 0.00 0.00 0.00 32 1008.0
20260504180157 78 135 2.0 3.0 0.00 0.00 0.00 31 1008.0
20260504175656 78 135 2.0 2.0 0.00 0.00 0.00 31 1008.0
20260504175156 78 135 1.0 2.0 0.00 0.00 0.00 30 1008.0
20260504174654 78 135 1.0 2.0 0.00 0.00 0.00 31 1008.0
20260504174157 77 135 2.0 2.0 0.00 0.00 0.00 31 1008.0
20260504173658 77 135 1.0 2.0 0.00 0.00 0.00 30 1008.0
20260504173158 77 135 1.0 2.0 0.00 0.00 0.00 32 1009.0
20260504172658 76 135 1.0 2.0 0.00 0.00 0.00 31 1009.0
20260504172157 77 135 3.0 4.0 0.00 0.00 0.00 31 1009.0
20260504171657 77 113 2.0 2.0 0.00 0.00 0.00 30 1009.0
20260504171157 76 135 1.0 2.0 0.00 0.00 0.00 30 1009.0
20260504170658 75 135 2.0 3.0 0.00 0.00 0.00 33 1009.0
20260504170158 74 135 2.0 2.0 0.00 0.00 0.00 33 1009.0
20260504160155 74 135 2.0 3.0 0.00 0.00 0.00 31 1010.0
20260504150657 72 135 1.0 2.0 0.00 0.00 0.00 37 1010.0
20260504150158 72 135 2.0 3.0 0.00 0.00 0.00 39 1010.0
20260504141156 66 135 0.0 1.0 0.00 0.00 0.00 48 1010.0
20260504140657 65 135 0.0 1.0 0.00 0.00 0.00 51 1010.0
20260504140158 64 113 1.0 2.0 0.00 0.00 0.00 51 1010.0
20260504130659 57 135 0.0 1.0 0.00 0.00 0.00 65 1010.0
20260504130157 56 135 0.0 0.0 0.00 0.00 0.00 69 1010.0
20260504120158 47 135 0.0 0.0 0.00 0.00 0.00 81 1010.0
20260504110656 40 135 0.0 0.0 0.00 0.00 0.00 88 1010.0
20260504110156 40 135 0.0 0.0 0.00 0.00 0.00 89 1010.0
20260504100154 40 135 0.0 0.0 0.00 0.00 0.00 89 1010.0
20260504081656 41 135 0.0 0.0 0.00 0.00 0.00 85 1010.0
20260504081158 41 135 0.0 0.0 0.00 0.00 0.00 85 1010.0
20260504080656 41 135 0.0 1.0 0.00 0.00 0.00 85 1010.0
20260504080155 41 135 1.0 2.0 0.00 0.00 0.00 85 1010.0
20260504070155 42 135 0.0 0.0 0.00 0.00 0.00 82 1010.0
20260504060156 43 135 0.0 0.0 0.00 0.00 0.00 78 1010.0
20260504050654 46 135 0.0 0.0 0.00 0.00 0.00 75 1010.0
20260504050156 46 135 0.0 0.0 0.00 0.00 0.00 74 1010.0
20260504045656 46 135 0.0 0.0 0.00 0.00 0.00 73 1010.0
20260504045154 46 135 0.0 0.0 0.00 0.00 0.00 74 1010.0
20260504044655 45 135 0.0 0.0 0.00 0.00 0.00 73 1010.0
20260504044155 45 135 0.0 0.0 0.00 0.00 0.00 74 1010.0
20260504043654 45 135 0.0 0.0 0.00 0.00 0.00 73 1010.0
20260504043155 45 135 0.0 0.0 0.00 0.00 0.00 75 1010.0
20260504042654 45 135 0.0 0.0 0.00 0.00 0.00 76 1010.0
20260504042154 45 135 0.0 0.0 0.00 0.00 0.00 75 1010.0
20260504041658 44 135 0.0 0.0 0.00 0.00 0.00 75 1010.0
20260504041155 44 135 0.0 0.0 0.00 0.00 0.00 76 1010.0
20260504040655 44 135 0.0 0.0 0.00 0.00 0.00 76 1010.0
20260504040155 44 135 0.0 0.0 0.00 0.00 0.00 77 1010.0
20260504035654 44 135 0.0 0.0 0.00 0.00 0.00 77 1010.0
20260504035156 44 135 0.0 0.0 0.00 0.00 0.00 76 1010.0
20260504034656 45 135 0.0 0.0 0.00 0.00 0.00 76 1010.0
20260504034154 45 135 0.0 0.0 0.00 0.00 0.00 75 1010.0
20260504033654 45 135 0.0 0.0 0.00 0.00 0.00 75 1010.0
20260504033154 45 135 0.0 0.0 0.00 0.00 0.00 76 1010.0
20260504032654 45 135 0.0 0.0 0.00 0.00 0.00 75 1010.0
20260504032155 45 135 0.0 0.0 0.00 0.00 0.00 75 1010.0
20260504031656 45 135 0.0 0.0 0.00 0.00 0.00 74 1010.0
20260504031155 45 135 0.0 0.0 0.00 0.00 0.00 74 1010.0
20260504030655 45 135 0.0 0.0 0.00 0.00 0.00 73 1010.0
20260504030154 46 135 0.0 0.0 0.00 0.00 0.00 73 1010.0
20260504025655 46 135 0.0 0.0 0.00 0.00 0.00 73 1010.0
20260504025154 46 135 0.0 0.0 0.00 0.00 0.00 72 1010.0
20260504024655 46 135 0.0 0.0 0.00 0.00 0.00 71 1010.0
20260504024155 47 135 0.0 0.0 0.00 0.00 0.00 71 1010.0
20260504023654 47 135 0.0 0.0 0.00 0.00 0.00 70 1010.0
20260504023154 47 135 0.0 0.0 0.00 0.00 0.00 69 1010.0
20260504022655 48 135 0.0 0.0 0.00 0.00 0.00 69 1010.0
20260504022154 48 135 0.0 0.0 0.00 0.00 0.00 68 1010.0
20260504021206 48 135 0.0 0.0 0.00 0.00 0.00 68 1010.0
20260504020654 49 135 0.0 0.0 0.00 0.00 0.00 66 1010.0
20260504020154 49 135 0.0 0.0 0.00 0.00 0.00 66 1010.0
20260504015654 49 135 0.0 0.0 0.00 0.00 0.00 65 1010.0
20260504015155 49 135 0.0 0.0 0.00 0.00 0.00 64 1010.0
20260504014655 50 135 0.0 0.0 0.00 0.00 0.00 63 1010.0
20260504014155 50 135 0.0 0.0 0.00 0.00 0.00 62 1010.0
20260504013654 50 135 0.0 0.0 0.00 0.00 0.00 60 1010.0
20260504013155 50 135 0.0 0.0 0.00 0.00 0.00 60 1010.0
20260504012654 51 135 0.0 0.0 0.00 0.00 0.00 59 1010.0
20260504012154 51 135 0.0 0.0 0.00 0.00 0.00 60 1010.0
20260504011654 51 135 0.0 0.0 0.00 0.00 0.00 58 1010.0
20260504011155 51 135 0.0 0.0 0.00 0.00 0.00 56 1010.0
20260504010654 52 135 0.0 0.0 0.00 0.00 0.00 55 1010.0
20260504010154 52 135 0.0 0.0 0.00 0.00 0.00 54 1010.0
20260504005655 52 135 0.0 0.0 0.00 0.00 0.00 53 1010.0
20260504005155 53 135 0.0 0.0 0.00 0.00 0.00 53 1009.0
20260504004657 53 135 0.0 0.0 0.00 0.00 0.00 51 1009.0
20260504004154 54 135 0.0 0.0 0.00 0.00 0.00 50 1009.0
20260504003654 54 135 0.0 0.0 0.00 0.00 0.00 48 1009.0
20260504003154 54 135 0.0 0.0 0.00 0.00 0.00 48 1009.0
20260504002654 55 135 0.0 0.0 0.00 0.00 0.00 48 1009.0
20260504002154 56 135 0.0 0.0 0.00 0.00 0.00 47 1009.0
20260504001654 56 135 0.0 0.0 0.00 0.00 0.00 45 1009.0
20260504001155 57 135 0.0 0.0 0.00 0.00 0.00 45 1009.0
20260504000654 57 135 0.0 0.0 0.00 0.00 0.00 44 1009.0
20260504000154 58 135 0.0 0.0 0.00 0.00 0.00 44 1009.0
20260503235654 58 135 0.0 0.0 0.00 0.00 0.00 42 1009.0
20260503235155 59 135 0.0 0.0 0.00 0.00 0.00 41 1009.0
20260503234654 60 135 0.0 0.0 0.00 0.00 0.00 39 1009.0
20260503234201 60 135 0.0 0.0 0.00 0.00 0.00 36 1009.0
20260503233654 61 135 0.0 0.0 0.00 0.00 0.00 35 1009.0
20260503233154 61 135 0.0 1.0 0.00 0.00 0.00 32 1009.0
20260503232654 61 135 0.0 0.0 0.00 0.00 0.00 33 1009.0
20260503232154 62 135 0.0 0.0 0.00 0.00 0.00 34 1009.0
20260503231654 62 135 0.0 0.0 0.00 0.00 0.00 33 1009.0
20260503231155 62 135 1.0 1.0 0.00 0.00 0.00 30 1009.0
20260503230654 62 135 0.0 1.0 0.00 0.00 0.00 30 1009.0
20260503230155 62 135 0.0 1.0 0.00 0.00 0.00 30 1009.0
20260503225654 63 135 0.0 0.0 0.00 0.00 0.00 31 1009.0
20260503225154 63 135 0.0 1.0 0.00 0.00 0.00 32 1009.0
20260503224654 63 135 0.0 0.0 0.00 0.00 0.00 31 1009.0
20260503224154 64 135 0.0 0.0 0.00 0.00 0.00 30 1009.0
20260503223654 64 135 0.0 0.0 0.00 0.00 0.00 29 1009.0
20260503223154 64 135 0.0 0.0 0.00 0.00 0.00 27 1009.0
20260503222654 64 113 0.0 1.0 0.00 0.00 0.00 27 1009.0
20260503222155 64 135 2.0 3.0 0.00 0.00 0.00 28 1009.0
20260503221655 64 135 1.0 2.0 0.00 0.00 0.00 28 1009.0
20260503221155 64 135 3.0 3.0 0.00 0.00 0.00 27 1009.0
20260503220654 65 135 1.0 2.0 0.00 0.00 0.00 27 1009.0
20260503220154 64 135 0.0 0.0 0.00 0.00 0.00 29 1010.0
20260503215654 64 135 1.0 2.0 0.00 0.00 0.00 28 1009.0
20260503215154 64 135 0.0 1.0 0.00 0.00 0.00 26 1009.0
20260503214654 65 135 1.0 2.0 0.00 0.00 0.00 28 1010.0
20260503214154 65 135 1.0 2.0 0.00 0.00 0.00 28 1010.0